Simultaneous Nadir Overpasses (SNOs) Predictions

Prediction of SNOs between AURA and NPP Satellite Orbit:

Table of predicted SNOs for the next 14.0 days since TLE Epoch: 6/15/2012
Index Date (AURA) Time (AURA) AURA Lat,Lon Date (NPP) Time (NPP) NPP Lat,Lon Distance(km) Time Diff (sec)
1 06/17/2012 04:31:03 79.72, 10.49 06/17/2012 04:30:26 79.72, 10.50 0.32 37
2 06/17/2012 05:20:25 -79.90, 179.51 06/17/2012 05:21:06 -79.90, 179.46 0.94 41
3 06/19/2012 20:47:32 79.75, 126.52 06/19/2012 20:47:17 79.75, 126.47 1.08 15
4 06/19/2012 21:36:54 -79.93, -64.44 06/19/2012 21:37:57 -79.92, -64.55 2.32 63
5 06/22/2012 12:14:38 -79.64, 73.95 06/22/2012 12:13:28 -79.64, 73.98 0.75 70
6 06/22/2012 13:03:58 79.85,-116.77 06/22/2012 13:04:05 79.86,-116.72 1.05 7
7 06/25/2012 04:31:05
